RH
72 68 65 62 61 58 58 61 59 58 58 52 50 46 48 50 48 49 59 62 61 55 52 53 55 59 61 65 70 74 77 81 80 84 88 87 86 86 86 84 82 83 84
69 67 66 63 61 59 60 59 58 62 61 55 51 49 47 48 47 49 48 65 65 64 61 57 57 59 60 64 69 71 73 76 80 82 87 91 88 88 88 87 86 86 86
62 65 67 66 64 63 60 62 63 60 63 56 54 53 52 53 52 49 52 50 61 71 75 70 64 63 63 60 61 62 64 69 73 76 85 89 91 90 89 88 88 86 86
54 63 67 68 67 70 66 67 66 64 63 62 62 60 51 49 51 50 49 49 49 42 72 77 74 69 62 58 57 54 55 60 63 68 76 87 89 92 92 90 87 89 89
58 64 65 69 70 68 69 68 61 67 67 66 58 54 58 56 50 38 43 48 52 46 51 68 76 74 71 64 55 52 51 53 58 62 67 76 86 90 93 95 91 89 88
55 61 61 68 70 66 66 69 74 66 66 63 47 47 56 51 51 58 48 43 44 44 44 48 69 71 76 69 58 51 48 48 50 52 58 66 75 84 90 92 92 94 90
54 60 60 60 61 62 66 65 65 65 60 67 62 59 55 55 63 53 47 45 43 41 42 41 61 56 59 73 66 53 47 46 48 50 53 57 66 80 83 84 91 93 92
52 44 58 57 60 63 66 70 73 67 62 62 65 60 60 52 54 52 48 48 41 42 39 42 46 47 48 58 65 61 49 49 49 52 54 59 66 76 73 73 76 81 91
46 50 54 58 63 64 64 67 68 68 69 62 65 69 66 66 59 53 54 52 64 66 74 64 44 42 52 49 57 62 69 66 56 51 52 56 62 64 70 68 66 68 77
53 46 51 60 65 68 67 70 54 74 74 72 72 62 72 76 88 80 67 62 57 62 72 81 68 60 50 53 62 67 74 77 71 57 53 53 58 59 66 63 65 66 74
54 50 52 60 67 65 67 72 71 78 79 83 80 77 78 72 73 89 81 80 70 72 80 92 88 90 78 56 52 71 72 75 76 72 67 56 55 58 60 64 63 65 69
54 56 53 63 66 67 66 73 83 80 87 86 82 82 84 79 76 77 81 82 83 83 82 87 96 96 92 80 55 75 78 80 75 72 71 69 63 59 58 58 60 63 66
60 59 62 63 64 65 67 67 74 79 78 88 88 88 88 84 83 76 82 85 85 78 91 89 89 90 83 93 85 79 77 78 69 71 74 75 72 74 74 72 69 66 63
63 60 62 61 66 69 74 73 78 78 82 88 78 79 85 86 86 89 89 94 94 93 88 91 84 89 91 90 85 76 69 73 73 76 73 74 75 63 68 71 74 72 70
51 61 70 67 67 72 75 78 81 80 82 86 88 88 86 85 87 83 86 85 91 95 81 64 86 84 90 88 85 73 63 70 72 78 77 67 72 68 67 62 61 63 64
59 63 69 72 71 72 71 72 79 77 78 83 79 80 85 74 71 72 76 83 82 83 88 69 54 48 46 41 66 70 54 75 76 76 76 64 64 64 67 68 67 67 68
63 63 60 64 66 68 82 85 82 74 69 69 70 67 67 63 66 64 60 55 57 66 68 54 50 46 48 54 44 44 48 62 71 75 72 70 72 72 71 70 69 65 64
63 59 60 60 63 65 74 78 79 73 70 70 62 61 59 45 56 54 53 53 55 55 58 56 54 50 50 50 49 54 41 30 46 66 73 72 71 72 74 74 72 73 74
56 54 48 49 46 49 48 49 50 53 54 53 52 54 52 55 60 60 59 58 55 45 54 56 57 56 53 54 49 50 48 54 41 52 78 78 76 75 78 76 73 74 73
48 46 46 47 50 43 39 49 48 56 58 52 56 54 53 52 56 60 59 67 56 63 58 58 57 54 56 52 55 51 56 56 57 33 44 55 76 77 77 74 74 74 76
44 45 44 48 50 44 47 64 59 60 60 58 57 50 51 56 60 64 48 59 64 67 67 64 63 60 57 59 63 61 66 67 67 66 68 66 64 69 73 78 67 74 76
46 48 51 51 54 35 72 70 70 71 62 61 63 57 54 57 56 66 68 67 69 69 64 64 63 66 63 62 64 71 80 82 83 74 76 81 74 75 71 65 70 71 75
53 56 56 55 58 60 72 71 71 67 66 62 61 60 55 44 61 56 69 74 71 79 84 76 75 75 71 65 65 71 79 85 88 79 79 94 94 90 84 57 79 71 71
55 56 60 59 63 53 70 71 74 74 70 67 65 62 62 62 67 67 70 79 74 69 69 68 78 79 72 66 70 75 80 79 85 83 78 89 95 92 95 91 75 73 73
56 60 60 68 72 69 71 82 85 83 79 74 67 68 69 68 65 65 74 83 84 76 61 67 71 76 75 75 76 79 86 88 95 91 82 90 92 95 94 93 93 77 75
54 70 76 77 75 76 76 70 76 88 88 81 80 72 67 73 90 89 96 97 95 86 78 82 80 72 67 80 89 92 91 89 83 85 72 78 82 92 95 93 90 89 96
Wind_Speed
3 3 2 2 3 3 3 3 3 4 4 4 5 5 5 6 6 3 2 8 8 6 9 12 13 12 10 8 6 5 5 7 8 9 7 8 11 11 13 14 15 14 14
1 2 3 3 4 3 2 2 4 4 5 4 6 7 7 6 5 5 4 5 10 10 10 11 11 12 11 9 7 6 5 5 6 9 12 12 11 13 11 13 14 15 15
3 3 3 4 4 3 3 4 5 4 4 5 7 6 6 7 6 7 5 3 6 11 11 11 12 12 11 10 8 6 6 5 5 6 7 12 13 7 9 13 14 15 16
2 2 3 4 4 4 4 4 4 5 5 4 4 5 5 6 8 9 7 6 5 7 11 14 13 14 14 14 12 9 7 7 7 8 6 7 6 6 6 11 16 17 17
6 5 4 5 6 4 5 5 6 5 4 4 6 6 5 5 6 7 9 8 8 8 7 15 18 16 15 14 14 13 12 9 6 6 7 9 12 13 13 13 11 13 17
7 6 5 6 6 5 5 5 5 5 6 6 9 9 7 8 7 6 8 7 9 11 10 11 10 9 14 15 16 15 15 13 12 10 9 6 8 7 14 15 14 10 18
7 6 5 6 6 6 6 7 5 7 7 5 7 8 8 8 8 8 8 9 10 11 14 13 10 8 9 19 18 19 17 15 14 12 10 10 5 7 6 6 10 15 14
7 8 6 5 5 5 7 7 6 6 6 6 8 8 12 10 7 7 9 11 14 10 13 13 12 14 11 9 11 19 18 17 15 13 11 10 8 9 10 8 7 7 11
6 6 6 5 5 5 5 6 6 7 6 7 7 5 10 11 10 7 9 10 10 8 1 6 14 13 9 11 12 13 13 12 14 14 13 12 11 10 11 10 9 8 7
6 7 7 7 6 4 6 5 7 5 5 6 5 8 9 7 5 10 4 9 10 9 9 4 6 11 8 6 9 8 12 9 9 12 13 13 12 11 10 11 10 9 8
7 7 7 7 6 5 6 7 5 6 4 4 3 4 4 8 8 5 10 8 9 10 10 7 8 2 10 9 4 7 12 9 9 8 11 14 15 13 12 12 12 11 10
5 6 7 6 6 5 6 5 5 7 5 5 4 5 3 2 6 7 8 9 8 6 9 7 6 5 6 7 10 7 9 9 8 3 4 9 13 14 13 13 14 14 12
4 6 6 6 5 6 5 5 4 3 2 2 2 1 3 4 3 6 7 9 8 7 4 4 3 5 5 2 7 5 7 8 8 5 1 4 2 3 7 9 11 13 14
4 6 9 9 8 7 6 7 5 4 5 5 5 4 4 4 3 3 4 4 7 4 5 7 2 3 6 6 5 5 5 9 9 9 6 3 2 1 3 3 1 2 3
8 9 7 9 8 7 6 6 5 6 5 6 7 6 5 5 5 5 4 6 5 5 7 5 2 5 2 7 9 8 7 12 14 9 8 5 3 3 2 4 4 3 3
8 9 8 10 10 9 9 10 7 7 7 5 6 6 8 8 9 6 6 6 7 7 9 4 8 6 7 6 8 10 11 10 9 10 10 9 8 7 7 6 4 4 5
8 7 8 8 8 8 5 3 8 9 7 8 7 8 8 10 8 8 8 8 7 4 8 6 5 5 5 5 6 6 4 4 6 15 15 13 12 11 10 9 7 7 7
5 7 6 7 7 7 6 8 9 9 9 8 9 10 10 7 9 6 6 8 6 6 6 10 5 5 5 6 5 5 4 5 5 13 17 15 14 14 12 11 9 7 7
6 6 7 7 8 7 8 7 7 7 9 9 11 13 13 9 7 5 6 5 6 6 8 7 6 4 4 4 6 5 5 4 4 5 12 15 14 12 10 11 11 10 10
6 6 6 7 7 8 10 8 9 9 8 9 11 14 15 13 11 9 8 5 5 5 8 9 9 8 5 5 5 5 6 3 3 5 6 4 10 14 15 14 13 13 13
6 6 7 7 7 7 6 6 7 8 9 11 10 12 14 17 22 11 7 6 5 4 4 7 8 9 7 5 5 5 5 3 4 2 2 3 3 1 6 13 14 17 15
5 6 6 6 6 6 9 9 9 8 10 11 12 13 13 19 16 13 9 10 9 7 9 7 7 8 9 9 7 5 4 3 4 4 3 4 3 4 3 3 5 7 4
6 6 6 5 5 5 7 11 9 6 8 10 13 13 13 11 15 11 10 14 7 8 6 7 9 10 10 10 10 8 5 3 3 4 3 3 2 3 3 4 5 7 2
5 6 5 5 5 6 14 13 8 6 7 9 12 13 14 13 10 12 8 7 8 7 6 7 9 11 10 10 8 7 6 6 4 4 4 5 3 4 3 4 8 10 6
5 4 5 7 7 7 12 11 9 5 7 9 11 12 13 12 17 20 11 8 8 9 10 17 16 17 18 19 16 8 8 7 6 4 3 3 3 3 3 4 4 11 13
4 4 4 5 8 8 9 13 11 4 7 9 10 12 18 15 9 12 7 7 8 8 7 6 7 8 10 10 15 10 8 9 8 7 7 6 3 1 3 4 5 6 2
Wind_Direction
67 8 334 320 317 293 295 339 329 310 327 272 234 223 266 269 259 277 205 192 182 213 257 266 255 247 236 230 224 219 207 209 215 215 208 256 240 228 219 219 213 211 211
40 336 348 321 310 310 336 307 262 255 248 237 255 231 226 243 275 270 252 205 204 199 215 242 252 251 246 241 234 229 226 210 202 210 213 216 232 225 218 223 213 210 210
355 343 317 293 277 289 313 285 273 263 259 241 235 234 218 223 219 241 255 217 199 220 212 221 233 228 220 221 220 220 225 231 239 223 211 212 220 218 228 219 220 215 210
222 275 304 310 301 310 290 289 290 280 276 270 267 254 237 220 216 212 219 216 198 205 215 214 221 218 217 209 203 206 214 227 235 241 230 223 243 228 250 239 223 219 216
32 24 337 309 316 307 289 286 287 265 268 294 290 283 276 251 238 232 218 218 211 220 193 214 209 209 214 215 212 208 209 212 221 238 242 231 214 215 222 235 235 233 219
15 357 326 307 300 298 297 304 315 317 303 291 288 289 288 274 262 243 236 225 215 217 217 200 204 211 208 212 222 227 221 218 222 224 228 265 224 211 223 230 227 236 244
18 355 320 326 330 322 317 318 320 308 301 301 304 294 293 291 287 269 258 238 227 218 213 211 186 200 208 212 213 224 228 225 225 229 234 227 250 190 235 238 238 221 240
5 329 300 296 330 343 332 325 329 324 319 323 313 308 304 295 286 286 282 267 250 241 226 212 202 201 203 197 208 215 219 222 216 219 233 243 231 213 208 237 235 242 252
293 293 328 345 343 351 331 317 313 324 328 321 316 310 312 299 309 304 300 308 310 287 330 296 238 228 204 184 198 206 199 217 216 215 218 228 236 245 205 218 231 239 240
330 347 349 355 342 343 314 308 331 321 332 317 345 13 6 3 337 311 334 330 324 325 295 282 293 298 223 163 155 185 194 187 231 229 228 224 224 235 233 225 232 240 240
359 357 357 339 350 326 315 298 313 351 15 10 359 360 354 352 358 320 315 345 335 346 356 3 340 348 335 346 358 154 163 182 210 245 246 229 224 221 235 240 237 240 249
357 341 342 334 325 331 314 352 46 49 36 34 16 11 8 329 322 307 306 309 302 301 332 1 341 353 341 328 321 138 170 163 179 204 305 272 239 231 232 235 240 237 245
337 330 333 324 311 313 7 7 3 109 80 68 28 331 298 285 254 287 293 292 296 309 290 297 350 325 304 280 305 200 203 173 161 176 254 304 322 298 256 244 240 242 245
328 322 352 343 14 27 15 19 1 353 5 343 309 281 263 257 260 235 236 270 298 284 284 262 308 293 314 301 264 209 206 180 176 179 188 235 208 47 347 331 299 257 244
354 359 360 354 349 5 7 10 342 323 334 304 285 270 269 260 245 243 236 227 251 291 296 313 295 252 230 304 285 275 196 206 190 174 179 187 256 301 305 311 312 293 272
347 341 359 356 342 349 349 334 317 306 311 300 290 308 299 297 306 289 257 233 239 251 276 286 285 265 260 209 247 237 258 171 161 180 189 197 215 240 268 278 293 321 328
352 337 324 307 309 304 301 291 274 288 298 300 296 285 291 291 289 300 299 301 288 247 264 284 275 303 320 305 262 230 280 233 192 197 199 209 216 217 222 235 257 279 293
302 312 301 300 283 280 260 260 265 270 267 276 306 301 293 280 285 300 298 287 285 292 284 288 288 298 294 297 302 301 289 263 215 208 214 221 221 210 213 223 240 261 273
299 317 333 318 321 308 300 298 307 341 2 345 333 328 316 298 288 276 279 289 307 320 328 311 298 298 306 314 309 313 295 303 304 278 197 217 215 214 218 220 222 238 256
324 322 320 320 316 322 322 12 354 346 340 334 329 320 314 308 293 287 316 315 300 322 315 312 309 307 305 303 290 287 290 286 276 296 297 263 209 218 218 225 231 234 241
318 332 326 319 317 314 36 18 1 344 331 321 314 305 301 305 308 281 263 263 288 291 298 293 295 304 299 300 294 333 320 331 322 353 343 342 344 258 244 232 232 243 242
328 313 313 314 322 347 72 36 19 338 328 322 309 300 294 296 297 318 298 254 233 235 255 262 272 281 290 301 321 324 330 341 324 327 12 315 341 316 327 290 169 100 54
304 303 301 313 357 11 52 19 349 323 310 318 308 306 306 307 318 311 341 343 325 280 284 280 274 269 273 279 289 297 295 288 268 293 340 287 319 279 265 288 177 168 259
300 299 332 4 357 343 346 339 336 309 314 310 309 309 306 310 314 313 304 289 296 291 255 236 236 253 260 270 273 290 299 296 290 275 264 268 261 264 278 265 270 285 243
303 14 8 1 351 331 315 345 303 313 305 309 302 299 297 302 302 304 299 286 278 276 277 271 275 278 278 270 264 267 263 269 279 273 266 226 248 251 242 260 254 252 257
18 57 17 346 325 319 341 341 343 321 311 313 312 308 304 311 9 356 336 301 286 279 288 302 300 300 293 263 260 245 243 242 251 268 246 258 263 268 283 229 231 245 230